sat.trackr.live / text

‹ back to catalog

USA 285

NORAD 43445 · 2018-036E

PAYLOAD ACTIVE UNKNOWN

§ Identity

Operator
Country
US
Launch date
2018-04-14
Launch site
AFETR
Launch vehicle
Mass (kg)
RCS (m²)

External: N2YO · Heavens-Above · Gunter

§ Orbital elements

Epoch: 2026-09-11T18:53:47.986944Z

Period
1,410.21 min
Inclination
7.3226°
Eccentricity
0.0011091
Mean motion
1.02112295 rev/d
Perigee alt
35,232.2 km
Apogee alt
35,324.6 km
Semi-major
41,656.5 km
B*
0.0000e+0
RAAN
65.8755°
Arg perigee
170.1684°
Mean anomaly
357.7542°
Rev number
2,782

§ Raw data

USA 2851 43445U 18036E   26254.78736096 -.00000059  00000+0  00000+0 0  99962 43445   7.3226  65.8755 0011091 170.1684 357.7542  1.02112295 27822

JSON: /api/v1/satellites/43445 · /tle

For live sub-satellite position, see the globe view (requires WebGL).

§ Visibility from observer

Set your observer location to see the next 7 days of passes ≥ 10°. The values pass through the URL so the page stays shareable.

No JS? Fill the form by hand. The geolocation button needs JavaScript.